This demonstration page uses our WeatherBlox Daily Observations layout. Learn more.

Left ArrowRight Arrow

Hourly Observations for August 5, 2021

Temp ( °F °C ) Dew Point ( °F °C ) Humidity (%) Winds ( mph kmh ) Pressure ( in mb ) Visibility ( mi km ) Precip ( " mm )
12:54 am 00:54 Clear 75 23.9 61 16.1 62 62 S 13 20 29.94 1014 10 16 0.00 0.00
1:54 am 01:54 Clear 73 22.8 62 16.7 69 69 SSE 5 7 29.94 1014 10 16 0.00 0.00
2:54 am 02:54 Mostly Clear 71 21.7 62 16.7 73 73 SSE 7 11 29.93 1013 10 16 0.00 0.00
3:54 am 03:54 Clear 70 21.1 62 16.7 76 76 S 3 6 29.92 1013 9 14 0.00 0.00
4:54 am 04:54 Clear 71 21.7 63 17.2 76 76 SW 3 6 29.93 1014 9 14 0.00 0.00
5:54 am 05:54 Clear 69 20.6 63 17.2 81 81 S 3 6 29.93 1014 9 14 0.00 0.00
6:54 am 06:54 Partly Cloudy 70 21.1 63 17.2 79 79 WSW 3 6 29.95 1014 9 14 0.00 0.00
7:54 am 07:54 Sunny 70 21.1 64 17.8 82 82 S 6 9 29.97 1015 7 11 0.00 0.00
8:54 am 08:54 Sunny 73 22.8 64 17.8 74 74 SW 3 6 29.97 1015 8 13 0.00 0.00
9:54 am 09:54 Sunny 78 25.6 64 17.8 62 62 SW 7 11 29.96 1014 10 16 0.00 0.00
10:54 am 10:54 Sunny 81 27.2 64 17.8 57 57 WSW 8 13 29.95 1014 10 16 0.00 0.00
11:54 am 11:54 Sunny 84 28.9 65 18.3 53 53 VRB 7 11 29.95 1014 10 16 0.00 0.00
12:54 pm 12:54 Sunny 86 30 64 17.8 48 48 SSW 13 20 29.93 1014 10 16 0.00 0.00
1:54 pm 13:54 Sunny 88 31.1 64 17.8 45 45 SW 7 11 29.91 1013 10 16 0.00 0.00
2:54 pm 14:54 Sunny 90 32.2 65 18.3 44 44 VRB 5 7 29.90 1012 10 16 0.00 0.00
3:54 pm 15:54 Sunny 92 33.3 65 18.3 41 41 W 8 13 29.90 1012 10 16 0.00 0.00
4:54 pm 16:54 Sunny 92 33.3 63 17.2 38 38 VRB 3 6 29.89 1012 10 16 0.00 0.00
5:54 pm 17:54 Sunny 89 31.7 64 17.8 43 43 VRB 3 6 29.88 1012 10 16 0.00 0.00
6:54 pm 18:54 Sunny 88 31.1 65 18.3 46 46 SW 9 15 29.88 1012 10 16 0.00 0.00
7:54 pm 19:54 Sunny 83 28.3 67 19.4 59 59 S 5 7 29.88 1012 10 16 0.00 0.00
8:54 pm 20:54 Clear 81 27.2 66 18.9 61 61 S 5 7 29.87 1012 10 16 0.00 0.00
9:54 pm 21:54 Clear 79 26.1 65 18.3 62 62 Calm 29.89 1012 10 16 0.00 0.00
10:54 pm 22:54 Clear 73 22.8 65 18.3 76 76 S 5 7 29.91 1013 9 14 0.00 0.00
11:54 pm 23:54 Clear 72 22.2 66 18.9 82 82 S 6 9 29.88 1012 9 14 0.00 0.00

Powered by AerisWeather